Weather History for Window Rock, AZ

Change the Weather History Date:

Tuesday, April 23, 2013

  Actual Average Record
Temperature  
Mean Temperature 45 °F -  
Max Temperature 55 °F 63 °F 80 °F (1965)
Min Temperature 26 °F 31 °F 18 °F (1963)
Degree Days  
Heating Degree Days 20    
Moisture  
Dew Point 6 °F    
Average Humidity 22    
Maximum Humidity 38    
Minimum Humidity 6    
Precipitation  
Precipitation 0.00 in - - ()
Sea Level Pressure  
Sea Level Pressure 29.82 in    
Wind  
Wind Speed 8 mph (NW)    
Max Wind Speed 17 mph    
Max Gust Speed 26 mph    
Visibility 10 miles    
Events      
Averages and records for this station are not official NWS values.
T = Trace of Precipitation, MM = Missing Value Source: NWS Daily Summary

Daily Weather History Graph

Daily Weather History Graph

Search for Another Location

Airport:

Trip Planner

Search our weather history database for the weather conditions in past years. The results will help you decide how hot, cold, wet, or windy it might be!

Date:

Astronomy

Apr. 23, 2013 Rise Set
Actual Time 6:33 AM MDT 7:56 PM MDT
Civil Twilight 6:06 AM MDT 8:23 PM MDT
Nautical Twilight 5:34 AM MDT 8:55 PM MDT
Astronomical Twilight 5:00 AM MDT 9:29 PM MDT
Moon 5:58 PM MDT 4:58 AM MDT
Length of Visible Light 14h 16m
Length of Day
13h 23m
Waxing Gibbous, 94% of the Moon is Illuminated
Apr 23
Waxing Gibbous
Apr 25
Full
May 2
Last Quarter
May 9
New
May 17
First Quarter

Hourly Weather History & Observations

Time (MDT) Temp. Windchill Dew Point Humidity Pressure Visibility Wind Dir Wind Speed Gust Speed Precip Events Conditions
12:53 AM 46.9 °F - 17.1 °F 30% 29.69 in 10.0 mi South 5.8 mph - N/A   Clear
1:53 AM 46.0 °F 44.8 °F 17.1 °F 31% 29.68 in 10.0 mi South 3.5 mph - N/A   Clear
2:53 AM 43.0 °F 38.8 °F 17.1 °F 35% 29.66 in 10.0 mi SSW 6.9 mph - N/A   Clear
3:53 AM 46.9 °F - 17.1 °F 30% 29.62 in 10.0 mi SW 8.1 mph - N/A   Clear
4:53 AM 46.9 °F - 17.1 °F 30% 29.65 in 10.0 mi WSW 9.2 mph - N/A   Clear
5:53 AM 42.1 °F - 16.0 °F 35% 29.69 in 10.0 mi Calm Calm - N/A   Clear
6:53 AM 41.0 °F 35.2 °F 17.1 °F 38% 29.75 in 10.0 mi North 9.2 mph - N/A   Clear
7:53 AM 43.0 °F 37.2 °F 16.0 °F 34% 29.78 in 10.0 mi North 10.4 mph - N/A   Clear
8:53 AM 46.9 °F - 16.0 °F 29% 29.79 in 10.0 mi North 12.7 mph - N/A   Clear
9:53 AM 48.0 °F - 16.0 °F 28% 29.80 in 10.0 mi North 12.7 mph - N/A   Overcast
10:53 AM 50.0 °F - 16.0 °F 26% 29.82 in 10.0 mi North 12.7 mph 16.1 mph N/A   Overcast
11:53 AM 50.0 °F - 16.0 °F 26% 29.85 in 10.0 mi North 9.2 mph - N/A   Overcast
12:53 PM 54.0 °F - 14.0 °F 21% 29.84 in 10.0 mi NW 15.0 mph 26.5 mph N/A   Mostly Cloudy
1:53 PM 53.1 °F - 3.9 °F 14% 29.86 in 10.0 mi NW 17.3 mph 25.3 mph N/A   Scattered Clouds
2:53 PM 54.0 °F - 1.0 °F 12% 29.89 in 10.0 mi NW 16.1 mph 25.3 mph N/A   Clear
3:53 PM 55.0 °F - -0.0 °F 11% 29.84 in 10.0 mi WNW 11.5 mph 20.7 mph N/A   Clear
4:53 PM 55.0 °F - -5.1 °F 8% 29.83 in 10.0 mi West 11.5 mph 21.9 mph N/A   Clear
5:53 PM 55.0 °F - -11.0 °F 6% 29.87 in 10.0 mi WNW 11.5 mph 20.7 mph N/A   Clear
6:53 PM 52.0 °F - -11.0 °F 7% 29.90 in 10.0 mi North 13.8 mph 19.6 mph N/A   Clear
7:53 PM 46.0 °F 41.4 °F -15.0 °F 7% 29.94 in 10.0 mi North 9.2 mph - N/A   Clear
8:53 PM 41.0 °F 38.0 °F -15.0 °F 9% 29.96 in 10.0 mi NE 4.6 mph - N/A   Clear
9:53 PM 35.1 °F - -11.0 °F 14% 30.01 in 10.0 mi Calm Calm - N/A   Unknown
10:53 PM 26.1 °F 19.4 °F -11.0 °F 19% 30.04 in 10.0 mi SSW 5.8 mph - N/A   Clear